Weather History for Hartford, CT

Change the Weather History Date:

Friday, September 27, 2013

  Actual Average Record
Temperature  
Mean Temperature 58 °F -  
Max Temperature 64 °F 70 °F 86 °F (1998)
Min Temperature 51 °F 46 °F 29 °F (1957)
Degree Days  
Heating Degree Days 8    
Growing Degree Days 8 (Base 50)    
Moisture  
Dew Point 50 °F    
Average Humidity 78    
Maximum Humidity 97    
Minimum Humidity 58    
Precipitation  
Precipitation 0.00 in - - ()
Sea Level Pressure  
Sea Level Pressure 30.21 in    
Wind  
Wind Speed 3 mph (North)    
Max Wind Speed 10 mph    
Max Gust Speed -    
Visibility 10 miles    
Events      
Averages and records for this station are not official NWS values.
T = Trace of Precipitation, MM = Missing Value Source: NWS Daily Summary

Daily Weather History Graph

Daily Weather History Graph

Search for Another Location

Airport:

Trip Planner

Search our weather history database for the weather conditions in past years. The results will help you decide how hot, cold, wet, or windy it might be!

Date:

Astronomy

Sep. 27, 2013 Rise Set
Actual Time 6:43 AM EDT 6:38 PM EDT
Civil Twilight 6:15 AM EDT 7:06 PM EDT
Nautical Twilight 5:43 AM EDT 7:38 PM EDT
Astronomical Twilight 5:10 AM EDT 8:11 PM EDT
Moon No Moon Rise 2:19 PM EDT (9/27)
Length of Visible Light 12h 50m
Length of Day
11h 55m
Last Quarter, 45% of the Moon is Illuminated
Sep 27
Last Quarter
Oct 4
New
Oct 11
First Quarter
Oct 18
Full
Oct 26
Last Quarter

Hourly Weather History & Observations

Time (EDT) Temp. Dew Point Humidity Pressure Visibility Wind Dir Wind Speed Gust Speed Precip Events Conditions
12:53 AM 51.1 °F 50.0 °F 96% 30.13 in 10.0 mi Calm Calm - N/A   Mostly Cloudy
1:53 AM 53.1 °F 50.0 °F 89% 30.14 in 10.0 mi Calm Calm - N/A   Overcast
2:53 AM 53.1 °F 50.0 °F 89% 30.14 in 10.0 mi NNE 3.5 mph - N/A   Overcast
3:53 AM 53.1 °F 48.9 °F 86% 30.14 in 10.0 mi NNE 3.5 mph - N/A   Overcast
4:53 AM 53.1 °F 48.9 °F 86% 30.16 in 10.0 mi Calm Calm - N/A   Mostly Cloudy
5:53 AM 53.1 °F 48.9 °F 86% 30.18 in 10.0 mi Calm Calm - N/A   Overcast
6:53 AM 54.0 °F 48.9 °F 83% 30.19 in 10.0 mi NNE 4.6 mph - N/A   Overcast
7:53 AM 54.0 °F 48.9 °F 83% 30.22 in 10.0 mi NNE 6.9 mph - N/A   Overcast
8:53 AM 55.9 °F 50.0 °F 80% 30.23 in 10.0 mi NNE 8.1 mph - N/A   Overcast
9:53 AM 57.0 °F 50.0 °F 77% 30.25 in 10.0 mi NNE 5.8 mph - N/A   Overcast
10:53 AM 57.9 °F 51.1 °F 78% 30.25 in 10.0 mi North 5.8 mph - N/A   Overcast
11:53 AM 61.0 °F 52.0 °F 72% 30.24 in 10.0 mi North 6.9 mph - N/A   Overcast
12:53 PM 62.1 °F 51.1 °F 67% 30.24 in 10.0 mi North 6.9 mph - N/A   Overcast
1:53 PM 63.0 °F 50.0 °F 63% 30.22 in 10.0 mi NNE 8.1 mph - N/A   Overcast
2:53 PM 64.0 °F 50.0 °F 60% 30.21 in 10.0 mi North 8.1 mph - N/A   Overcast
3:53 PM 64.0 °F 48.9 °F 58% 30.21 in 10.0 mi North 10.4 mph - N/A   Overcast
4:53 PM 64.0 °F 48.9 °F 58% 30.21 in 10.0 mi NNW 8.1 mph - N/A   Overcast
5:53 PM 63.0 °F 48.9 °F 60% 30.22 in 10.0 mi NNW 6.9 mph - N/A   Scattered Clouds
6:53 PM 62.1 °F 50.0 °F 65% 30.23 in 10.0 mi North 5.8 mph - N/A   Mostly Cloudy
7:53 PM 60.1 °F 51.1 °F 72% 30.24 in 10.0 mi North 4.6 mph - N/A   Clear
8:53 PM 55.0 °F 52.0 °F 89% 30.25 in 10.0 mi Calm Calm - N/A   Clear
9:53 PM 54.0 °F 52.0 °F 93% 30.27 in 10.0 mi Calm Calm - N/A   Clear
10:53 PM 52.0 °F 51.1 °F 97% 30.28 in 10.0 mi Calm Calm - N/A   Clear
11:53 PM 51.1 °F 50.0 °F 96% 30.28 in 3.0 mi Calm Calm - N/A   Clear